contact:dominique.lefevre@mio.osupytheas.fr, maurice.libes@osupytheas.fr, didier.mallarino@osupytheas.fr
Project:EMSO http://www.emso-fr.org/EMSO-France
Depth: 2436.0 m
Title:EMSO Ligure Ouest : Data MII capteur AQUADOPP
Date,Latitude,Longitude,X_East,Y_North,Z_Up,Amplitude_X,Amplitude_Y,Amplitude_Z,Batterie,SoundSpeed,Heading,Pitch,Roll,Pressure,TIS,Speed,Direction
, degrees North, degrees East, m.s-1, m.s-1,m.s-1, 1, 1, 1, Volt, m.s-1, degree, degree, degree, dbar, degree_C, m.s-1, degree
2021-03-12T00:04:03,42.805,6.029,0.078,-0.007,0.055,108.0,108.0,105.0,13.4,1505.2,327.0,-0.8,1.8,2472.042,13.28,0.078,95.1
2021-03-12T00:07:03,42.805,6.029,0.069,-0.038,0.03,106.0,109.0,104.0,13.3,1505.2,327.5,-0.8,1.8,2472.025,13.28,0.078,118.8
2021-03-12T00:10:03,42.805,6.029,0.065,-0.012,-0.002,107.0,110.0,103.0,13.4,1505.2,327.2,-0.8,1.8,2472.085,13.28,0.066,100.5
2021-03-12T00:13:03,42.805,6.029,0.072,-0.022,0.027,106.0,107.0,104.0,13.4,1505.2,327.2,-0.7,1.8,2472.042,13.28,0.075,107.0
2021-03-12T00:16:03,42.805,6.029,0.071,-0.001,0.012,106.0,106.0,105.0,13.4,1505.2,327.2,-0.8,1.9,2471.985,13.28,0.071,90.8
2021-03-12T00:19:03,42.805,6.029,0.074,-0.012,0.025,107.0,109.0,103.0,13.4,1505.2,326.9,-0.7,1.8,2471.983,13.28,0.074,99.2
2021-03-12T00:22:03,42.805,6.029,0.067,0.0,0.063,106.0,108.0,104.0,13.4,1505.2,327.2,-0.7,1.8,2471.948,13.28,0.066,90.0
2021-03-12T00:25:03,42.805,6.029,0.052,-0.02,0.039,106.0,110.0,104.0,13.4,1505.2,327.5,-0.8,1.8,2471.931,13.28,0.055,111.0
2021-03-12T00:28:03,42.805,6.029,0.087,-0.037,0.023,108.0,111.0,104.0,13.4,1505.2,327.5,-0.7,1.8,2471.875,13.28,0.094,113.0
2021-03-12T00:31:03,42.805,6.029,0.095,-0.017,0.047,107.0,108.0,104.0,13.4,1505.2,326.8,-0.8,1.8,2471.881,13.28,0.096,100.1
2021-03-12T00:34:03,42.805,6.029,0.077,-0.021,0.018,106.0,110.0,104.0,13.4,1505.2,327.3,-0.8,1.8,2471.901,13.28,0.079,105.3
2021-03-12T00:37:03,42.805,6.029,0.08,-0.025,0.034,106.0,108.0,104.0,13.4,1505.2,327.6,-0.7,1.9,2471.822,13.28,0.083,107.4
2021-03-12T00:40:03,42.805,6.029,0.082,-0.018,0.03,106.0,109.0,104.0,13.3,1505.2,327.3,-0.7,1.8,2471.794,13.28,0.083,102.4
2021-03-12T00:43:03,42.805,6.029,0.067,-0.025,0.004,107.0,108.0,105.0,13.4,1505.2,327.0,-0.8,1.8,2471.755,13.28,0.071,110.5
2021-03-12T00:46:03,42.805,6.029,0.088,-0.011,0.01,107.0,109.0,103.0,13.4,1505.2,327.0,-0.8,1.8,2471.745,13.28,0.088,97.1
2021-03-12T00:49:03,42.805,6.029,0.04,-0.028,0.005,107.0,109.0,104.0,13.3,1505.2,327.7,-0.7,1.8,2471.722,13.28,0.048,125.0
2021-03-12T00:52:03,42.805,6.029,0.047,-0.016,0.0,107.0,108.0,104.0,13.4,1505.2,327.6,-0.7,1.8,2471.722,13.28,0.049,108.8
2021-03-12T00:55:03,42.805,6.029,0.076,-0.014,0.031,106.0,109.0,104.0,13.4,1505.2,327.5,-0.8,1.8,2471.676,13.28,0.077,100.4
2021-03-12T00:58:03,42.805,6.029,0.078,-0.021,0.02,106.0,112.0,104.0,13.4,1505.2,327.2,-0.8,1.8,2471.667,13.28,0.08,105.1
2021-03-12T01:04:03,42.805,6.029,0.089,-0.006,0.048,106.0,109.0,104.0,13.4,1505.2,327.2,-0.7,1.8,2471.595,13.28,0.089,93.9
2021-03-12T01:07:03,42.805,6.029,0.073,-0.007,0.018,106.0,108.0,104.0,13.3,1505.2,327.6,-0.7,1.9,2471.568,13.28,0.073,95.5
2021-03-12T01:10:03,42.805,6.029,0.088,-0.003,0.037,106.0,109.0,103.0,13.3,1505.2,327.3,-0.8,1.8,2471.554,13.28,0.088,92.0
2021-03-12T01:13:03,42.805,6.029,0.112,-0.002,0.043,107.0,108.0,104.0,13.4,1505.2,326.9,-0.7,1.8,2471.586,13.28,0.112,91.0
2021-03-12T01:16:03,42.805,6.029,0.067,-0.001,0.018,107.0,108.0,103.0,13.4,1505.2,327.5,-0.7,1.8,2471.596,13.28,0.067,90.9
2021-03-12T01:19:03,42.805,6.029,0.081,-0.023,0.021,107.0,109.0,104.0,13.4,1505.2,327.1,-0.7,1.8,2471.615,13.28,0.084,105.8
2021-03-12T01:22:03,42.805,6.029,0.072,0.01,0.024,107.0,109.0,104.0,13.4,1505.2,327.6,-0.8,1.8,2471.616,13.28,0.072,82.1
2021-03-12T01:25:03,42.805,6.029,0.087,0.009,0.038,106.0,108.0,105.0,13.3,1505.2,327.0,-0.7,1.8,2471.618,13.28,0.087,84.1
2021-03-12T01:28:03,42.805,6.029,0.083,-0.01,-0.004,107.0,110.0,103.0,13.3,1505.2,327.3,-0.8,1.9,2471.631,13.28,0.083,96.9
2021-03-12T01:31:03,42.805,6.029,0.076,-0.006,0.022,106.0,108.0,103.0,13.4,1505.2,327.7,-0.7,1.8,2471.598,13.28,0.076,94.5
2021-03-12T01:34:03,42.805,6.029,0.081,-0.025,0.021,106.0,109.0,103.0,13.3,1505.2,327.2,-0.7,1.9,2471.579,13.28,0.084,107.1
2021-03-12T01:37:03,42.805,6.029,0.053,-0.019,0.029,107.0,108.0,104.0,13.4,1505.2,327.1,-0.7,1.8,2471.569,13.28,0.056,109.7
2021-03-12T01:40:03,42.805,6.029,0.058,-0.003,0.015,107.0,108.0,105.0,13.4,1505.2,327.6,-0.8,1.8,2471.484,13.28,0.058,93.0
2021-03-12T01:43:03,42.805,6.029,0.097,-0.032,0.042,106.0,108.0,103.0,13.4,1505.2,327.2,-0.8,1.8,2471.455,13.28,0.102,108.3
2021-03-12T01:46:03,42.805,6.029,0.072,-0.007,0.0,106.0,109.0,104.0,13.4,1505.2,327.1,-0.8,1.9,2471.456,13.28,0.072,95.5
2021-03-12T01:49:03,42.805,6.029,0.059,-0.005,0.009,106.0,108.0,104.0,13.4,1505.2,327.1,-0.7,1.8,2471.465,13.28,0.059,94.8
2021-03-12T01:52:03,42.805,6.029,0.055,-0.014,0.007,108.0,109.0,104.0,13.3,1505.2,327.6,-0.7,1.8,2471.402,13.28,0.056,104.3
2021-03-12T01:55:03,42.805,6.029,0.067,-0.012,0.006,107.0,109.0,104.0,13.3,1505.2,327.0,-0.8,1.8,2471.384,13.28,0.068,100.2
2021-03-12T01:58:03,42.805,6.029,0.084,-0.024,0.021,107.0,108.0,103.0,13.3,1505.2,327.7,-0.7,1.9,2471.333,13.28,0.087,105.9
2021-03-12T02:04:03,42.805,6.029,0.069,-0.011,0.019,106.0,108.0,104.0,13.4,1505.2,326.8,-0.7,1.8,2471.351,13.28,0.069,99.1
2021-03-12T02:07:03,42.805,6.029,0.047,-0.019,-0.033,107.0,109.0,104.0,13.4,1505.2,327.7,-0.8,1.8,2471.388,13.28,0.05,112.0
2021-03-12T02:10:03,42.805,6.029,0.055,0.008,0.03,106.0,109.0,104.0,13.4,1505.2,327.0,-0.8,1.8,2471.402,13.28,0.055,81.7
2021-03-12T02:13:03,42.805,6.029,0.074,-0.024,0.018,107.0,111.0,104.0,13.4,1505.2,327.6,-0.7,1.8,2471.389,13.28,0.077,108.0
2021-03-12T02:16:03,42.805,6.029,0.059,-0.024,0.005,106.0,109.0,103.0,13.4,1505.2,327.6,-0.7,1.8,2471.413,13.28,0.063,112.1
2021-03-12T02:19:03,42.805,6.029,0.068,0.0,-0.012,107.0,108.0,104.0,13.4,1505.2,327.6,-0.8,1.8,2471.368,13.28,0.067,90.0
2021-03-12T02:22:03,42.805,6.029,0.066,0.001,0.018,107.0,109.0,103.0,13.3,1505.2,326.9,-0.7,1.8,2471.372,13.28,0.066,89.1
2021-03-12T02:25:03,42.805,6.029,0.058,-0.003,0.029,106.0,109.0,104.0,13.3,1505.2,327.1,-0.8,1.8,2471.338,13.28,0.058,93.0
2021-03-12T02:28:03,42.805,6.029,0.082,-0.001,0.051,106.0,107.0,103.0,13.4,1505.2,327.3,-0.7,1.8,2471.36,13.28,0.082,90.7
2021-03-12T02:31:03,42.805,6.029,0.077,-0.01,0.023,108.0,107.0,103.0,13.4,1505.2,327.0,-0.7,1.8,2471.303,13.28,0.077,97.4
2021-03-12T02:34:03,42.805,6.029,0.106,-0.005,0.037,106.0,108.0,103.0,13.3,1505.2,327.7,-0.7,1.8,2471.323,13.28,0.106,92.7
2021-03-12T02:37:03,42.805,6.029,0.088,-0.015,0.007,106.0,108.0,104.0,13.4,1505.2,327.4,-0.8,1.8,2471.32,13.28,0.089,99.7
2021-03-12T02:40:03,42.805,6.029,0.054,0.005,0.009,107.0,108.0,104.0,13.4,1505.2,326.8,-0.8,1.8,2471.299,13.28,0.054,84.7
2021-03-12T02:43:03,42.805,6.029,0.067,-0.026,-0.004,106.0,108.0,104.0,13.4,1505.2,327.2,-0.8,1.8,2471.328,13.28,0.071,111.2
2021-03-12T02:46:03,42.805,6.029,0.094,-0.012,0.01,106.0,108.0,104.0,13.4,1505.2,327.3,-0.8,1.8,2471.336,13.28,0.094,97.3
2021-03-12T02:49:03,42.805,6.029,0.08,0.0,0.003,107.0,108.0,103.0,13.3,1505.2,327.3,-0.7,1.8,2471.293,13.28,0.079,90.0
2021-03-12T02:52:03,42.805,6.029,0.076,-0.014,0.061,106.0,108.0,104.0,13.4,1505.2,327.5,-0.7,1.8,2471.289,13.28,0.077,100.4
2021-03-12T02:55:03,42.805,6.029,0.111,-0.023,0.018,107.0,107.0,104.0,13.3,1505.2,327.0,-0.8,1.8,2471.265,13.28,0.113,101.7
2021-03-12T02:58:03,42.805,6.029,0.08,-0.03,0.025,106.0,107.0,103.0,13.4,1505.2,327.6,-0.8,1.8,2471.279,13.28,0.085,110.6
2021-03-12T03:04:03,42.805,6.029,0.091,-0.019,0.02,107.0,107.0,103.0,13.4,1505.2,327.3,-0.7,1.8,2471.206,13.28,0.092,101.8
2021-03-12T03:07:03,42.805,6.029,0.078,-0.028,0.03,106.0,108.0,104.0,13.4,1505.2,327.0,-0.8,1.8,2471.173,13.28,0.082,109.7
2021-03-12T03:10:03,42.805,6.029,0.073,-0.013,0.032,106.0,107.0,103.0,13.3,1505.2,327.6,-0.7,1.8,2471.152,13.28,0.074,100.1
2021-03-12T03:13:03,42.805,6.029,0.077,-0.025,-0.011,106.0,108.0,103.0,13.4,1505.2,327.0,-0.8,1.8,2471.163,13.28,0.08,108.0
2021-03-12T03:16:03,42.805,6.029,0.075,-0.036,0.003,105.0,106.0,104.0,13.3,1505.2,327.1,-0.7,1.8,2471.088,13.28,0.083,115.6
2021-03-12T03:19:03,42.805,6.029,0.062,-0.007,0.017,106.0,107.0,105.0,13.3,1505.2,327.3,-0.8,1.9,2471.086,13.28,0.062,96.4
2021-03-12T03:22:03,42.805,6.029,0.088,-0.013,0.015,105.0,107.0,103.0,13.3,1505.2,326.9,-0.8,1.8,2471.044,13.28,0.088,98.4
2021-03-12T03:25:03,42.805,6.029,0.078,-0.026,0.02,107.0,108.0,102.0,13.3,1505.2,327.2,-0.8,1.8,2471.057,13.28,0.082,108.4
2021-03-12T03:28:03,42.805,6.029,0.067,-0.036,-0.001,105.0,107.0,103.0,13.4,1505.2,327.2,-0.8,1.8,2470.992,13.28,0.076,118.3
2021-03-12T03:31:03,42.805,6.029,0.097,-0.021,0.032,106.0,107.0,104.0,13.4,1505.2,327.1,-0.8,1.8,2471.004,13.28,0.099,102.2
2021-03-12T03:34:03,42.805,6.029,0.086,0.001,0.026,106.0,108.0,102.0,13.4,1505.2,327.6,-0.7,1.8,2471.025,13.28,0.086,89.3
2021-03-12T03:37:03,42.805,6.029,0.082,-0.016,0.022,106.0,108.0,103.0,13.4,1505.2,327.6,-0.7,1.8,2471.001,13.28,0.083,101.0
2021-03-12T03:40:03,42.805,6.029,0.075,0.0,0.006,106.0,109.0,103.0,13.3,1505.2,327.1,-0.8,1.9,2470.999,13.28,0.074,90.0
2021-03-12T03:43:03,42.805,6.029,0.058,-0.027,0.0,106.0,109.0,103.0,13.4,1505.2,327.5,-0.7,1.8,2470.962,13.28,0.063,115.0
2021-03-12T03:46:03,42.805,6.029,0.072,0.002,0.015,107.0,107.0,104.0,13.4,1505.2,327.6,-0.7,1.8,2470.93,13.28,0.072,88.4
2021-03-12T03:49:03,42.805,6.029,0.084,-0.009,0.034,107.0,108.0,103.0,13.3,1505.2,327.2,-0.7,1.8,2470.981,13.28,0.084,96.1
2021-03-12T03:52:03,42.805,6.029,0.067,-0.028,0.02,108.0,109.0,104.0,13.4,1505.2,327.2,-0.8,1.8,2470.958,13.28,0.072,112.7
2021-03-12T03:55:03,42.805,6.029,0.087,-0.018,0.032,107.0,107.0,105.0,13.4,1505.2,327.4,-0.8,1.9,2470.97,13.28,0.088,101.7
2021-03-12T03:58:03,42.805,6.029,0.064,-0.007,0.0,106.0,110.0,104.0,13.4,1505.2,327.2,-0.7,1.8,2470.933,13.28,0.064,96.2
2021-03-12T04:04:03,42.805,6.029,0.073,-0.005,0.054,106.0,108.0,104.0,13.4,1505.2,327.7,-0.8,1.8,2470.44,13.28,0.073,93.9
2021-03-12T04:07:03,42.805,6.029,0.079,-0.012,0.029,108.0,107.0,103.0,13.4,1505.2,327.0,-0.8,1.8,2469.929,13.28,0.079,98.6
2021-03-12T04:10:03,42.805,6.029,0.068,-0.032,0.043,107.0,107.0,104.0,13.4,1505.2,327.2,-0.7,1.8,2470.062,13.28,0.075,115.2
2021-03-12T04:13:03,42.805,6.029,0.052,-0.016,0.008,107.0,107.0,104.0,13.3,1505.2,327.0,-0.8,1.8,2470.152,13.28,0.054,107.1
2021-03-12T04:16:03,42.805,6.029,0.08,-0.02,0.037,106.0,107.0,104.0,13.4,1505.2,326.8,-0.7,1.8,2470.25,13.28,0.082,104.0
2021-03-12T04:19:03,42.805,6.029,0.085,-0.019,0.018,105.0,108.0,104.0,13.4,1505.2,327.3,-0.7,1.8,2470.328,13.28,0.087,102.6
2021-03-12T04:22:03,42.805,6.029,0.063,-0.022,0.01,107.0,109.0,104.0,13.4,1505.2,327.3,-0.8,1.9,2470.409,13.28,0.066,109.2
2021-03-12T04:25:03,42.805,6.029,0.072,-0.037,0.021,106.0,107.0,104.0,13.4,1505.2,327.0,-0.8,1.8,2470.499,13.28,0.08,117.2
2021-03-12T04:28:03,42.805,6.029,0.067,-0.012,0.037,107.0,108.0,103.0,13.4,1505.2,327.5,-0.8,1.8,2470.57,13.28,0.068,100.2
2021-03-12T04:31:03,42.805,6.029,0.099,-0.018,0.022,107.0,109.0,103.0,13.4,1505.2,327.7,-0.7,1.8,2470.601,13.28,0.1,100.3
2021-03-12T04:34:03,42.805,6.029,0.091,-0.02,-0.007,108.0,106.0,103.0,13.4,1505.2,327.2,-0.8,1.8,2470.603,13.28,0.093,102.4
2021-03-12T04:37:03,42.805,6.029,0.077,-0.003,0.044,106.0,107.0,104.0,13.4,1505.2,327.0,-0.8,1.8,2470.679,13.28,0.077,92.2
2021-03-12T04:40:03,42.805,6.029,0.073,-0.007,0.03,106.0,107.0,103.0,13.3,1505.2,326.8,-0.7,1.8,2470.649,13.28,0.073,95.5
2021-03-12T04:43:03,42.805,6.029,0.052,-0.012,0.014,107.0,108.0,103.0,13.3,1505.2,327.0,-0.8,1.8,2470.703,13.28,0.053,103.0
2021-03-12T04:46:03,42.805,6.029,0.071,-0.019,0.012,107.0,108.0,103.0,13.4,1505.2,327.1,-0.7,1.8,2470.722,13.28,0.073,105.0
2021-03-12T04:49:03,42.805,6.029,0.091,0.004,0.031,107.0,108.0,103.0,13.4,1505.2,327.4,-0.8,1.8,2470.741,13.28,0.091,87.5
2021-03-12T04:52:03,42.805,6.029,0.074,-0.014,0.028,106.0,107.0,104.0,13.4,1505.2,327.8,-0.7,1.8,2470.745,13.28,0.075,100.7
2021-03-12T04:55:03,42.805,6.029,0.072,-0.014,0.029,107.0,108.0,103.0,13.3,1505.2,327.1,-0.8,1.8,2470.74,13.28,0.073,101.0
2021-03-12T04:58:03,42.805,6.029,0.074,-0.028,0.012,107.0,107.0,104.0,13.3,1505.2,327.0,-0.8,1.8,2470.726,13.28,0.079,110.7
2021-03-12T05:04:03,42.805,6.029,0.071,-0.016,0.009,106.0,108.0,104.0,13.4,1505.2,327.3,-0.8,1.8,2470.788,13.28,0.072,102.7
2021-03-12T05:07:03,42.805,6.029,0.075,-0.009,-0.007,107.0,108.0,104.0,13.3,1505.2,326.8,-0.8,1.9,2470.75,13.28,0.075,96.8
2021-03-12T05:10:03,42.805,6.029,0.042,-0.032,0.009,106.0,108.0,104.0,13.4,1505.2,327.4,-0.8,1.8,2470.762,13.28,0.052,127.3
2021-03-12T05:13:03,42.805,6.029,0.082,-0.023,0.021,106.0,108.0,105.0,13.4,1505.2,327.1,-0.8,1.8,2470.785,13.28,0.085,105.7
2021-03-12T05:16:03,42.805,6.029,0.066,-0.001,0.02,107.0,107.0,104.0,13.3,1505.2,327.1,-0.7,1.8,2470.727,13.28,0.066,90.9
2021-03-12T05:19:03,42.805,6.029,0.066,-0.013,0.056,105.0,107.0,104.0,13.4,1505.2,327.7,-0.7,1.8,2470.707,13.28,0.067,101.1
2021-03-12T05:22:03,42.805,6.029,0.083,-0.015,0.026,106.0,108.0,104.0,13.4,1505.2,327.7,-0.7,1.9,2470.745,13.28,0.084,100.2
2021-03-12T05:25:03,42.805,6.029,0.075,-0.009,-0.001,106.0,108.0,105.0,13.4,1505.2,327.8,-0.7,1.9,2470.703,13.28,0.075,96.8
2021-03-12T05:28:03,42.805,6.029,0.072,-0.019,0.022,107.0,108.0,104.0,13.4,1505.2,326.8,-0.8,1.8,2470.719,13.28,0.074,104.8
2021-03-12T05:31:03,42.805,6.029,0.085,0.002,0.012,106.0,108.0,104.0,13.4,1505.2,327.1,-0.8,1.8,2470.705,13.28,0.085,88.7
2021-03-12T05:34:03,42.805,6.029,0.093,-0.01,0.051,107.0,108.0,103.0,13.4,1505.2,327.0,-0.7,1.8,2470.681,13.28,0.093,96.1
2021-03-12T05:37:03,42.805,6.029,0.04,-0.022,0.001,108.0,109.0,103.0,13.4,1505.2,327.6,-0.8,1.8,2470.717,13.28,0.045,118.8
2021-03-12T05:40:03,42.805,6.029,0.077,-0.017,0.019,107.0,109.0,104.0,13.4,1505.2,327.1,-0.7,1.8,2470.692,13.28,0.078,102.4
2021-03-12T05:43:03,42.805,6.029,0.069,-0.021,0.036,106.0,109.0,104.0,13.4,1505.2,327.3,-0.7,1.8,2470.685,13.28,0.072,106.9
2021-03-12T05:46:03,42.805,6.029,0.05,-0.005,0.034,108.0,109.0,103.0,13.4,1505.2,327.7,-0.7,1.8,2470.686,13.28,0.05,95.7
2021-03-12T05:49:03,42.805,6.029,0.076,-0.017,0.015,107.0,108.0,104.0,13.3,1505.2,327.1,-0.8,1.8,2470.718,13.28,0.077,102.6
2021-03-12T05:52:03,42.805,6.029,0.078,0.0,0.006,107.0,106.0,104.0,13.3,1505.2,327.1,-0.7,1.8,2470.663,13.28,0.077,90.0
2021-03-12T05:55:03,42.805,6.029,0.059,-0.016,-0.002,107.0,108.0,104.0,13.4,1505.2,327.4,-0.7,1.8,2470.667,13.28,0.061,105.2
2021-03-12T05:58:03,42.805,6.029,0.083,-0.018,0.013,105.0,108.0,104.0,13.4,1505.2,327.6,-0.8,1.9,2470.659,13.28,0.084,102.2
2021-03-12T06:04:03,42.805,6.029,0.079,-0.014,0.032,107.0,107.0,104.0,13.3,1505.2,327.1,-0.7,1.8,2470.749,13.28,0.08,100.0
2021-03-12T06:07:03,42.805,6.029,0.067,-0.027,0.009,106.0,106.0,105.0,13.4,1505.2,327.8,-0.8,1.9,2470.695,13.28,0.072,111.9
2021-03-12T06:10:03,42.805,6.029,0.063,-0.026,0.024,107.0,110.0,104.0,13.4,1505.2,327.5,-0.7,1.8,2470.691,13.28,0.068,112.4
2021-03-12T06:13:03,42.805,6.029,0.062,-0.012,0.004,107.0,109.0,103.0,13.3,1505.2,327.2,-0.7,1.8,2470.705,13.28,0.063,101.0
2021-03-12T06:16:03,42.805,6.029,0.083,-0.024,0.001,106.0,108.0,103.0,13.3,1505.2,327.1,-0.8,1.9,2470.713,13.28,0.086,106.1
2021-03-12T06:19:03,42.805,6.029,0.076,-0.019,0.031,108.0,109.0,104.0,13.4,1505.2,327.1,-0.8,1.8,2470.649,13.28,0.078,104.0
2021-03-12T06:22:03,42.805,6.029,0.092,-0.019,0.039,106.0,107.0,103.0,13.4,1505.2,327.3,-0.7,1.8,2470.697,13.28,0.093,101.7
2021-03-12T06:25:03,42.805,6.029,0.084,-0.018,0.013,106.0,107.0,103.0,13.4,1505.2,327.4,-0.7,1.8,2470.643,13.28,0.085,102.1
2021-03-12T06:28:03,42.805,6.029,0.08,-0.015,0.012,107.0,108.0,104.0,13.3,1505.2,327.1,-0.8,1.8,2470.634,13.28,0.081,100.6
2021-03-12T06:31:03,42.805,6.029,0.076,-0.023,0.033,106.0,108.0,104.0,13.4,1505.2,327.0,-0.8,1.8,2470.587,13.28,0.079,106.8
2021-03-12T06:34:03,42.805,6.029,0.082,0.001,0.008,105.0,109.0,103.0,13.4,1505.2,327.0,-0.8,1.8,2470.567,13.28,0.082,89.3
2021-03-12T06:37:03,42.805,6.029,0.087,-0.022,0.022,106.0,109.0,103.0,13.4,1505.2,327.2,-0.8,1.8,2470.601,13.28,0.089,104.2
2021-03-12T06:40:03,42.805,6.029,0.093,-0.018,0.018,107.0,107.0,103.0,13.4,1505.2,327.0,-0.8,1.8,2470.487,13.28,0.094,101.0
2021-03-12T06:43:03,42.805,6.029,0.099,-0.015,0.033,106.0,107.0,104.0,13.4,1505.2,327.5,-0.7,1.8,2470.531,13.28,0.1,98.6
2021-03-12T06:46:03,42.805,6.029,0.098,-0.019,0.054,107.0,108.0,104.0,13.3,1505.2,327.3,-0.8,1.8,2470.569,13.28,0.099,101.0
2021-03-12T06:49:03,42.805,6.029,0.082,-0.007,0.015,106.0,107.0,103.0,13.3,1505.2,327.2,-0.7,1.8,2470.581,13.28,0.082,94.9
2021-03-12T06:52:03,42.805,6.029,0.061,0.009,0.027,106.0,107.0,103.0,13.4,1505.2,327.2,-0.7,1.8,2470.569,13.28,0.061,81.6
2021-03-12T06:55:03,42.805,6.029,0.06,-0.007,0.022,107.0,108.0,105.0,13.3,1505.2,327.4,-0.8,1.8,2470.587,13.28,0.06,96.7
2021-03-12T06:58:03,42.805,6.029,0.081,-0.015,0.032,107.0,109.0,102.0,13.4,1505.2,327.0,-0.8,1.8,2470.712,13.28,0.082,100.5
2021-03-12T07:04:03,42.805,6.029,0.057,-0.018,0.035,107.0,108.0,103.0,13.4,1505.2,327.1,-0.8,1.8,2470.775,13.28,0.059,107.5
2021-03-12T07:07:03,42.805,6.029,0.072,-0.006,0.021,106.0,106.0,104.0,13.4,1505.2,327.6,-0.7,1.8,2470.783,13.28,0.072,94.8
2021-03-12T07:10:03,42.805,6.029,0.083,0.0,-0.001,106.0,108.0,103.0,13.3,1505.2,327.5,-0.8,1.8,2470.913,13.28,0.082,90.0
2021-03-12T07:13:03,42.805,6.029,0.089,-0.006,0.045,105.0,108.0,103.0,13.4,1505.2,327.4,-0.8,1.8,2471.01,13.28,0.089,93.9
2021-03-12T07:16:03,42.805,6.029,0.087,-0.026,0.044,105.0,107.0,104.0,13.4,1505.2,327.5,-0.7,1.8,2470.994,13.28,0.09,106.6
2021-03-12T07:19:03,42.805,6.029,0.083,-0.018,0.05,107.0,108.0,104.0,13.4,1505.2,327.3,-0.7,1.8,2470.994,13.28,0.084,102.2
2021-03-12T07:22:03,42.805,6.029,0.077,-0.006,-0.006,107.0,105.0,102.0,13.3,1505.2,327.0,-0.8,1.8,2470.94,13.28,0.077,94.5
2021-03-12T07:25:03,42.805,6.029,0.077,-0.028,0.009,106.0,108.0,103.0,13.4,1505.2,326.8,-0.8,1.8,2470.897,13.28,0.081,110.0
2021-03-12T07:28:03,42.805,6.029,0.073,-0.024,0.04,106.0,107.0,104.0,13.4,1505.2,327.4,-0.8,1.8,2470.896,13.28,0.076,108.2
2021-03-12T07:31:03,42.805,6.029,0.085,-0.04,0.041,106.0,107.0,103.0,13.4,1505.2,327.6,-0.8,1.8,2470.952,13.28,0.093,115.2
2021-03-12T07:34:03,42.805,6.029,0.073,-0.02,0.029,106.0,108.0,103.0,13.4,1505.2,327.0,-0.8,1.9,2470.917,13.28,0.075,105.3
2021-03-12T07:37:03,42.805,6.029,0.081,-0.008,0.042,107.0,106.0,104.0,13.4,1505.2,327.7,-0.8,1.9,2470.881,13.28,0.081,95.6
2021-03-12T07:40:03,42.805,6.029,0.071,-0.028,0.011,106.0,105.0,104.0,13.4,1505.2,327.4,-0.8,1.9,2470.832,13.28,0.076,111.5
2021-03-12T07:43:03,42.805,6.029,0.099,-0.029,0.011,107.0,108.0,103.0,13.4,1505.2,326.7,-0.7,1.8,2470.809,13.28,0.103,106.3
2021-03-12T07:46:03,42.805,6.029,0.105,-0.019,0.019,106.0,106.0,104.0,13.3,1505.2,327.4,-0.8,1.8,2470.735,13.28,0.106,100.3
2021-03-12T07:49:03,42.805,6.029,0.097,-0.004,0.044,106.0,107.0,104.0,13.4,1505.2,327.1,-0.8,1.8,2470.685,13.28,0.097,92.4
2021-03-12T07:52:03,42.805,6.029,0.093,-0.014,0.028,107.0,108.0,104.0,13.3,1505.2,327.0,-0.8,1.9,2470.64,13.28,0.094,98.6
2021-03-12T07:55:03,42.805,6.029,0.079,-0.03,0.053,106.0,107.0,104.0,13.3,1505.2,327.2,-0.7,1.8,2470.554,13.28,0.084,110.8
2021-03-12T07:58:03,42.805,6.029,0.073,-0.013,0.033,106.0,108.0,105.0,13.4,1505.2,327.4,-0.8,1.8,2470.554,13.28,0.074,100.1
2021-03-12T08:04:03,42.805,6.029,0.09,-0.015,0.032,106.0,106.0,104.0,13.3,1505.2,327.4,-0.8,1.8,2470.606,13.28,0.091,99.5
2021-03-12T08:07:03,42.805,6.029,0.095,-0.023,0.035,105.0,106.0,104.0,13.3,1505.2,327.2,-0.8,1.8,2470.612,13.28,0.097,103.6
2021-03-12T08:10:03,42.805,6.029,0.091,-0.03,0.032,107.0,106.0,104.0,13.3,1505.2,327.0,-0.8,1.8,2470.609,13.28,0.095,108.2
2021-03-12T08:13:03,42.805,6.029,0.099,-0.021,0.053,106.0,106.0,103.0,13.4,1505.2,327.1,-0.7,1.8,2470.473,13.28,0.101,102.0
2021-03-12T08:16:03,42.805,6.029,0.088,-0.039,0.022,107.0,106.0,104.0,13.4,1505.2,327.2,-0.8,1.8,2470.459,13.28,0.096,113.9
2021-03-12T08:19:03,42.805,6.029,0.058,-0.022,0.023,106.0,108.0,104.0,13.4,1505.2,327.7,-0.8,1.9,2470.36,13.28,0.062,110.8
2021-03-12T08:22:03,42.805,6.029,0.092,-0.021,0.034,106.0,108.0,103.0,13.3,1505.2,326.8,-0.8,1.8,2470.329,13.28,0.094,102.9
2021-03-12T08:25:03,42.805,6.029,0.095,-0.02,0.026,105.0,106.0,103.0,13.3,1505.2,326.9,-0.7,1.8,2470.311,13.28,0.097,101.9
2021-03-12T08:28:03,42.805,6.029,0.066,-0.038,0.029,106.0,107.0,103.0,13.4,1505.2,327.3,-0.7,1.8,2470.297,13.28,0.076,119.9
2021-03-12T08:31:03,42.805,6.029,0.063,-0.007,0.018,106.0,108.0,103.0,13.3,1505.2,326.8,-0.7,1.8,2470.296,13.28,0.063,96.3
2021-03-12T08:34:03,42.805,6.029,0.065,0.007,0.055,106.0,107.0,104.0,13.3,1505.2,327.4,-0.7,1.8,2470.386,13.28,0.065,83.9
2021-03-12T08:37:03,42.805,6.029,0.082,-0.009,0.023,106.0,107.0,104.0,13.4,1505.2,327.6,-0.8,1.9,2470.433,13.28,0.082,96.3
2021-03-12T08:40:03,42.805,6.029,0.073,-0.014,0.032,107.0,107.0,104.0,13.4,1505.2,327.2,-0.7,1.8,2470.445,13.28,0.074,100.9
2021-03-12T08:43:03,42.805,6.029,0.088,-0.021,0.029,106.0,106.0,103.0,13.4,1505.2,327.1,-0.8,1.8,2470.384,13.28,0.09,103.4
2021-03-12T08:46:03,42.805,6.029,0.082,-0.027,-0.004,106.0,107.0,104.0,13.4,1505.2,327.3,-0.7,1.8,2470.251,13.28,0.086,108.2
2021-03-12T08:49:03,42.805,6.029,0.062,-0.019,0.023,107.0,108.0,103.0,13.4,1505.2,327.2,-0.8,1.8,2470.212,13.28,0.064,107.0
2021-03-12T08:52:03,42.805,6.029,0.079,-0.026,0.031,106.0,107.0,104.0,13.4,1505.2,326.6,-0.7,1.8,2470.208,13.28,0.083,108.2
2021-03-12T08:55:03,42.805,6.029,0.073,-0.023,0.021,107.0,106.0,104.0,13.4,1505.2,327.3,-0.8,1.8,2470.221,13.28,0.076,107.5
2021-03-12T08:58:03,42.805,6.029,0.077,-0.015,-0.003,106.0,106.0,103.0,13.3,1505.2,326.7,-0.8,1.8,2470.188,13.28,0.078,101.0
2021-03-12T09:04:03,42.805,6.029,0.081,-0.031,0.018,105.0,105.0,104.0,13.4,1505.2,327.0,-0.8,1.8,2470.174,13.28,0.086,110.9
2021-03-12T09:07:03,42.805,6.029,0.052,-0.01,0.036,105.0,107.0,104.0,13.4,1505.2,327.3,-0.8,1.8,2470.176,13.28,0.052,100.9
2021-03-12T09:10:03,42.805,6.029,0.072,-0.018,0.005,106.0,107.0,103.0,13.4,1505.2,327.3,-0.7,1.8,2470.174,13.28,0.074,104.0
2021-03-12T09:13:03,42.805,6.029,0.078,-0.02,-0.01,105.0,106.0,104.0,13.4,1505.2,327.5,-0.8,1.9,2470.188,13.28,0.08,104.4
2021-03-12T09:16:03,42.805,6.029,0.072,-0.018,0.012,106.0,106.0,104.0,13.4,1505.2,327.5,-0.7,1.8,2470.2,13.28,0.074,104.0
2021-03-12T09:19:03,42.805,6.029,0.067,-0.016,0.011,105.0,107.0,104.0,13.4,1505.2,326.8,-0.8,1.8,2470.201,13.28,0.068,103.4
2021-03-12T09:22:03,42.805,6.029,0.075,-0.017,0.027,107.0,107.0,104.0,13.4,1505.2,326.9,-0.7,1.8,2470.203,13.28,0.076,102.8
2021-03-12T09:25:03,42.805,6.029,0.066,-0.015,0.001,106.0,106.0,103.0,13.3,1505.2,327.7,-0.7,1.8,2470.258,13.28,0.067,102.8
2021-03-12T09:28:03,42.805,6.029,0.071,-0.015,0.048,106.0,106.0,104.0,13.4,1505.2,327.5,-0.7,1.8,2470.223,13.28,0.072,101.9
2021-03-12T09:31:03,42.805,6.029,0.084,-0.011,0.048,106.0,106.0,103.0,13.4,1505.2,327.1,-0.7,1.9,2470.227,13.28,0.084,97.5
2021-03-12T09:34:03,42.805,6.029,0.089,-0.025,0.04,106.0,106.0,103.0,13.4,1505.2,327.0,-0.8,1.8,2470.159,13.28,0.092,105.7
2021-03-12T09:37:03,42.805,6.029,0.071,-0.015,0.02,104.0,107.0,104.0,13.3,1505.2,327.1,-0.8,1.8,2470.216,13.28,0.072,101.9
2021-03-12T09:40:03,42.805,6.029,0.069,-0.047,-0.002,106.0,108.0,103.0,13.4,1505.2,327.0,-0.8,1.8,2470.214,13.28,0.083,124.3
2021-03-12T09:43:03,42.805,6.029,0.059,-0.021,0.01,106.0,106.0,103.0,13.4,1505.2,327.1,-0.8,1.9,2470.226,13.28,0.062,109.6
2021-03-12T09:46:03,42.805,6.029,0.053,-0.004,0.002,106.0,106.0,103.0,13.3,1505.2,327.5,-0.8,1.8,2470.21,13.28,0.053,94.3
2021-03-12T09:49:03,42.805,6.029,0.088,-0.021,0.02,106.0,107.0,104.0,13.4,1505.2,327.0,-0.8,1.8,2470.205,13.28,0.09,103.4
2021-03-12T09:52:03,42.805,6.029,0.087,-0.007,0.019,107.0,106.0,103.0,13.4,1505.2,327.3,-0.7,1.8,2470.234,13.28,0.087,94.6
2021-03-12T09:55:03,42.805,6.029,0.075,-0.03,0.015,106.0,105.0,102.0,13.4,1505.2,327.0,-0.7,1.8,2470.206,13.28,0.08,111.8
2021-03-12T09:58:03,42.805,6.029,0.083,-0.026,0.032,106.0,108.0,104.0,13.4,1505.2,327.5,-0.7,1.8,2470.201,13.28,0.086,107.4